Location: Marstown
(39.5056°N, 77.0820°W)
Time: 13:59:17
(UTC-04:00)

ISS - Visible Passes

Search period start: 23 July 2024 00:00
Search period end: 02 August 2024 00:00
Orbit: 409 x 423 km, 51.6° (Epoch: 23 July)

Date Brightness Start Highest point End Pass type
(mag) Time Alt. Az. Time Alt. Az. Time Alt. Az.
23 Jul -3.0 22:28:06 10° NW 22:31:16 41° NNE 22:31:40 39° NE visible
24 Jul -2.2 21:39:41 10° NNW 21:42:35 27° NNE 21:44:45 14° E visible
24 Jul -1.5 23:16:16 10° WNW 23:17:38 21° W 23:17:38 21° W visible
25 Jul -3.8 22:27:30 10° WNW 22:30:44 69° SW 22:30:44 69° SW visible
26 Jul -3.6 21:38:51 10° NW 21:42:09 65° NE 21:43:52 25° ESE visible
27 Jul -2.0 22:27:18 10° W 22:29:54 22° SW 22:29:54 22° SW visible
28 Jul -2.9 21:38:13 10° WNW 21:41:21 40° SW 21:43:05 21° SSE visible
29 Jul -3.7 20:49:20 10° NW 20:52:38 77° SW 20:55:55 10° SE visible
30 Jul -1.2 21:38:23 10° W 21:40:12 14° SW 21:41:59 10° SSW visible
31 Jul -1.9 20:48:45 10° WNW 20:51:31 25° SW 20:54:16 10° S visible
